Time,TemperatureF,DewpointF,PressureIn,WindDirection,WindDirectionDegrees,WindSpeedMPH,WindSpeedGustMPH,Humidity,HourlyPrecipIn,Conditions,Clouds,dailyrainin,SoftwareType,DateUTC
2013-01-12 00:00:00,13.2,2.9,30.63,North,358,0.0,2.0,63,0.00,,,0.00,Wunderground v.1.15,2013-01-12 07:00:00,
2013-01-12 00:10:00,12.1,2.6,30.63,North,358,0.0,2.0,65,0.00,,,0.00,Wunderground v.1.15,2013-01-12 07:10:00,
2013-01-12 00:20:00,11.4,2.6,30.63,North,358,0.0,2.0,67,0.00,,,0.00,Wunderground v.1.15,2013-01-12 07:20:00,
2013-01-12 00:25:00,10.7,2.2,30.63,NNW,338,0.0,2.0,68,0.00,,,0.00,Wunderground v.1.15,2013-01-12 07:25:00,
2013-01-12 00:35:00,9.9,1.8,30.63,NNW,341,0.0,2.0,69,0.00,,,0.00,Wunderground v.1.15,2013-01-12 07:35:00,
2013-01-12 00:40:00,9.7,1.6,30.63,NNW,341,0.0,2.0,69,0.00,,,0.00,Wunderground v.1.15,2013-01-12 07:40:00,
2013-01-12 00:50:00,9.4,1.9,30.63,NNW,347,0.0,2.0,71,0.00,,,0.00,Wunderground v.1.15,2013-01-12 07:50:00,
2013-01-12 00:55:00,10.1,2.9,30.63,NNW,347,0.0,2.0,72,0.00,,,0.00,Wunderground v.1.15,2013-01-12 07:55:00,
2013-01-12 01:05:00,9.8,2.3,30.63,North,354,0.0,0.0,71,0.00,,,0.00,Wunderground v.1.15,2013-01-12 08:05:00,
2013-01-12 01:10:00,9.9,3.0,30.63,North,8,0.0,0.0,73,0.00,,,0.00,Wunderground v.1.15,2013-01-12 08:10:00,
2013-01-12 01:20:00,10.4,4.0,30.63,NNW,338,1.0,1.0,75,0.00,,,0.00,Wunderground v.1.15,2013-01-12 08:20:00,
2013-01-12 01:25:00,11.1,4.4,30.63,NW,323,1.0,2.0,74,0.00,,,0.00,Wunderground v.1.15,2013-01-12 08:25:00,
2013-01-12 01:35:00,11.6,4.6,30.63,NNE,23,0.0,2.0,73,0.00,,,0.00,Wunderground v.1.15,2013-01-12 08:35:00,
2013-01-12 01:40:00,11.5,4.2,30.63,NNE,20,0.0,2.0,72,0.00,,,0.00,Wunderground v.1.15,2013-01-12 08:40:00,
2013-01-12 01:50:00,11.8,4.5,30.64,NNE,13,0.0,4.0,72,0.00,,,0.00,Wunderground v.1.15,2013-01-12 08:50:00,
2013-01-12 01:55:00,12.6,5.0,30.64,NW,326,1.0,4.0,71,0.00,,,0.00,Wunderground v.1.15,2013-01-12 08:55:00,
2013-01-12 02:05:00,13.2,4.9,30.64,NNW,338,1.0,2.0,69,0.00,,,0.00,Wunderground v.1.15,2013-01-12 09:05:00,
2013-01-12 02:10:00,13.3,5.0,30.64,NE,34,1.0,2.0,69,0.00,,,0.00,Wunderground v.1.15,2013-01-12 09:10:00,
2013-01-12 02:20:00,13.4,4.8,30.65,North,356,0.0,2.0,68,0.00,,,0.00,Wunderground v.1.15,2013-01-12 09:20:00,
2013-01-12 02:25:00,13.0,4.7,30.65,NW,305,0.0,4.0,69,0.00,,,0.00,Wunderground v.1.15,2013-01-12 09:25:00,
2013-01-12 02:35:00,12.8,5.2,30.65,NE,34,0.0,4.0,71,0.00,,,0.00,Wunderground v.1.15,2013-01-12 09:35:00,
2013-01-12 02:40:00,13.4,5.4,30.64,NE,51,0.0,4.0,70,0.00,,,0.00,Wunderground v.1.15,2013-01-12 09:40:00,
2013-01-12 02:50:00,14.0,5.4,30.64,East,86,0.0,4.0,68,0.00,,,0.00,Wunderground v.1.15,2013-01-12 09:50:00,
2013-01-12 02:55:00,14.5,5.5,30.64,WSW,250,0.0,4.0,67,0.00,,,0.00,Wunderground v.1.15,2013-01-12 09:55:00,
2013-01-12 03:05:00,13.1,5.5,30.64,West,281,0.0,1.0,71,0.00,,,0.00,Wunderground v.1.15,2013-01-12 10:05:00,
2013-01-12 03:10:00,12.6,5.3,30.64,NNW,339,0.0,1.0,72,0.00,,,0.00,Wunderground v.1.15,2013-01-12 10:10:00,
2013-01-12 03:20:00,12.1,5.1,30.64,North,1,0.0,1.0,73,0.00,,,0.00,Wunderground v.1.15,2013-01-12 10:20:00,
2013-01-12 03:25:00,12.3,5.0,30.64,NE,44,0.0,1.0,72,0.00,,,0.00,Wunderground v.1.15,2013-01-12 10:25:00,
2013-01-12 03:35:00,12.9,5.0,30.64,NE,44,0.0,1.0,70,0.00,,,0.00,Wunderground v.1.15,2013-01-12 10:35:00,
2013-01-12 03:40:00,12.7,4.4,30.64,NE,44,0.0,1.0,69,0.00,,,0.00,Wunderground v.1.15,2013-01-12 10:40:00,
2013-01-12 03:50:00,12.5,4.6,30.64,NE,44,0.0,1.0,70,0.00,,,0.00,Wunderground v.1.15,2013-01-12 10:50:00,
2013-01-12 03:55:00,13.4,4.8,30.64,NE,44,0.0,1.0,68,0.00,,,0.00,Wunderground v.1.15,2013-01-12 10:55:00,
2013-01-12 04:05:00,14.9,4.9,30.64,NE,46,0.0,0.0,64,0.00,,,0.00,Wunderground v.1.15,2013-01-12 11:05:00,
2013-01-12 04:10:00,15.5,4.4,30.64,NE,46,0.0,0.0,61,0.00,,,0.00,Wunderground v.1.15,2013-01-12 11:10:00,
2013-01-12 04:20:00,12.2,2.3,30.64,NW,326,0.0,1.0,64,0.00,,,0.00,Wunderground v.1.15,2013-01-12 11:20:00,
2013-01-12 04:25:00,11.5,3.0,30.64,West,280,0.0,1.0,68,0.00,,,0.00,Wunderground v.1.15,2013-01-12 11:25:00,
2013-01-12 04:35:00,10.7,2.5,30.64,West,281,0.0,0.0,69,0.00,,,0.00,Wunderground v.1.15,2013-01-12 11:35:00,
2013-01-12 04:40:00,11.1,4.1,30.63,North,1,0.0,0.0,73,0.00,,,0.00,Wunderground v.1.15,2013-01-12 11:40:00,
2013-01-12 04:50:00,10.6,3.3,30.64,NW,318,0.0,0.0,72,0.00,,,0.00,Wunderground v.1.15,2013-01-12 11:50:00,
2013-01-12 04:55:00,10.0,3.4,30.64,NW,323,0.0,2.0,74,0.00,,,0.00,Wunderground v.1.15,2013-01-12 11:55:00,
2013-01-12 05:05:00,10.7,4.3,30.64,North,4,0.0,2.0,75,0.00,,,0.00,Wunderground v.1.15,2013-01-12 12:05:00,
2013-01-12 05:10:00,10.8,4.1,30.64,NNW,347,0.0,2.0,74,0.00,,,0.00,Wunderground v.1.15,2013-01-12 12:10:00,
2013-01-12 05:20:00,11.0,4.6,30.64,North,9,0.0,2.0,75,0.00,,,0.00,Wunderground v.1.15,2013-01-12 12:20:00,
2013-01-12 05:25:00,10.9,4.2,30.65,North,10,0.0,2.0,74,0.00,,,0.00,Wunderground v.1.15,2013-01-12 12:25:00,
2013-01-12 05:35:00,11.1,5.0,30.65,North,11,0.0,2.0,76,0.00,,,0.00,Wunderground v.1.15,2013-01-12 12:35:00,
2013-01-12 05:40:00,11.3,4.6,30.65,North,11,0.0,2.0,74,0.00,,,0.00,Wunderground v.1.15,2013-01-12 12:40:00,
2013-01-12 05:50:00,10.5,3.8,30.66,North,9,0.0,2.0,74,0.00,,,0.00,Wunderground v.1.15,2013-01-12 12:50:00,
2013-01-12 05:55:00,10.2,4.1,30.66,NW,316,0.0,2.0,76,0.00,,,0.00,Wunderground v.1.15,2013-01-12 12:55:00,
2013-01-12 06:05:00,9.9,4.4,30.67,NNW,328,0.0,0.0,78,0.00,,,0.00,Wunderground v.1.15,2013-01-12 13:05:00,
2013-01-12 06:10:00,10.2,4.7,30.67,North,359,0.0,0.0,78,0.00,,,0.00,Wunderground v.1.15,2013-01-12 13:10:00,
2013-01-12 06:20:00,11.4,5.3,30.67,NW,310,0.0,0.0,76,0.00,,,0.00,Wunderground v.1.15,2013-01-12 13:20:00,
2013-01-12 06:25:00,11.3,5.5,30.68,NNW,328,0.0,3.0,77,0.00,,,0.00,Wunderground v.1.15,2013-01-12 13:25:00,
2013-01-12 06:35:00,12.1,6.3,30.68,North,4,0.0,3.0,77,0.00,,,0.00,Wunderground v.1.15,2013-01-12 13:35:00,
2013-01-12 06:40:00,12.5,6.7,30.69,NW,310,0.0,3.0,77,0.00,,,0.00,Wunderground v.1.15,2013-01-12 13:40:00,
2013-01-12 06:50:00,12.8,6.4,30.69,ENE,61,1.0,3.0,75,0.00,,,0.00,Wunderground v.1.15,2013-01-12 13:50:00,
2013-01-12 06:55:00,12.9,6.2,30.69,NE,37,1.0,3.0,74,0.00,,,0.00,Wunderground v.1.15,2013-01-12 13:55:00,
2013-01-12 07:05:00,12.4,5.7,30.70,NE,39,0.0,2.0,74,0.00,,,0.00,Wunderground v.1.15,2013-01-12 14:05:00,
2013-01-12 07:10:00,11.8,4.8,30.70,NE,39,0.0,2.0,73,0.00,,,0.00,Wunderground v.1.15,2013-01-12 14:10:00,
2013-01-12 07:20:00,11.3,5.2,30.70,NE,39,0.0,2.0,76,0.00,,,0.00,Wunderground v.1.15,2013-01-12 14:20:00,
2013-01-12 07:25:00,11.7,5.6,30.70,ESE,104,0.0,3.0,76,0.00,,,0.00,Wunderground v.1.15,2013-01-12 14:25:00,
2013-01-12 07:35:00,11.8,4.5,30.70,West,278,0.0,3.0,72,0.00,,,0.00,Wunderground v.1.15,2013-01-12 14:35:00,
2013-01-12 07:40:00,10.6,4.2,30.70,West,277,0.0,3.0,75,0.00,,,0.00,Wunderground v.1.15,2013-01-12 14:40:00,
2013-01-12 07:50:00,9.3,3.8,30.71,West,277,0.0,3.0,78,0.00,,,0.00,Wunderground v.1.15,2013-01-12 14:50:00,
2013-01-12 07:55:00,8.8,3.6,30.72,North,5,0.0,3.0,79,0.00,,,0.00,Wunderground v.1.15,2013-01-12 14:55:00,
2013-01-12 08:05:00,9.5,4.8,30.72,NW,322,0.0,2.0,81,0.00,,,0.00,Wunderground v.1.15,2013-01-12 15:05:00,
2013-01-12 08:10:00,9.8,5.1,30.72,NW,314,0.0,2.0,81,0.00,,,0.00,Wunderground v.1.15,2013-01-12 15:10:00,
2013-01-12 08:20:00,10.7,6.0,30.73,NE,49,1.0,2.0,81,0.00,,,0.00,Wunderground v.1.15,2013-01-12 15:20:00,
2013-01-12 08:25:00,11.3,6.1,30.73,NNE,16,1.0,2.0,79,0.00,,,0.00,Wunderground v.1.15,2013-01-12 15:25:00,
2013-01-12 08:35:00,12.4,6.6,30.73,NNW,331,2.0,2.0,77,0.00,,,0.00,Wunderground v.1.15,2013-01-12 15:35:00,
2013-01-12 08:40:00,13.0,6.9,30.74,WNW,297,1.0,1.0,76,0.00,,,0.00,Wunderground v.1.15,2013-01-12 15:40:00,
2013-01-12 08:50:00,14.8,8.3,30.74,WNW,297,1.0,2.0,75,0.00,,,0.00,Wunderground v.1.15,2013-01-12 15:50:00,
2013-01-12 08:55:00,15.9,8.5,30.74,NW,316,1.0,3.0,72,0.00,,,0.00,Wunderground v.1.15,2013-01-12 15:55:00,
2013-01-12 09:05:00,17.4,9.0,30.74,West,276,0.0,3.0,69,0.00,,,0.00,Wunderground v.1.15,2013-01-12 16:05:00,
2013-01-12 09:10:00,18.0,9.2,30.74,North,349,0.0,3.0,68,0.00,,,0.00,Wunderground v.1.15,2013-01-12 16:10:00,
2013-01-12 09:19:00,19.1,9.6,30.75,NW,305,1.0,1.0,66,0.00,,,0.00,Wunderground v.1.15,2013-01-12 16:19:00,
2013-01-12 09:25:00,19.8,10.3,30.74,North,356,1.0,3.0,66,0.00,,,0.00,Wunderground v.1.15,2013-01-12 16:25:00,
2013-01-12 09:35:00,21.1,10.8,30.74,NW,312,1.0,3.0,64,0.00,,,0.00,Wunderground v.1.15,2013-01-12 16:35:00,
2013-01-12 09:40:00,21.7,11.0,30.74,NW,311,1.0,3.0,63,0.00,,,0.00,Wunderground v.1.15,2013-01-12 16:40:00,
2013-01-12 09:50:00,22.6,11.2,30.74,ENE,65,1.0,3.0,61,0.00,,,0.00,Wunderground v.1.15,2013-01-12 16:50:00,
2013-01-12 10:00:00,23.1,11.3,30.74,WNW,290,1.0,1.0,60,0.00,,,0.00,Wunderground v.1.15,2013-01-12 17:00:00,
2013-01-12 10:10:00,23.5,11.3,30.74,NNW,328,0.0,4.0,59,0.00,,,0.00,Wunderground v.1.15,2013-01-12 17:10:00,
2013-01-12 10:20:00,24.4,11.3,30.74,North,349,1.0,1.0,57,0.00,,,0.00,Wunderground v.1.15,2013-01-12 17:20:00,
2013-01-12 10:25:00,24.6,11.5,30.74,NNW,331,2.0,4.0,57,0.00,,,0.00,Wunderground v.1.15,2013-01-12 17:25:00,
2013-01-12 10:35:00,25.4,11.5,30.74,NW,323,2.0,4.0,55,0.00,,,0.00,Wunderground v.1.15,2013-01-12 17:35:00,
2013-01-12 10:40:00,25.7,11.3,30.74,NW,310,2.0,4.0,54,0.00,,,0.00,Wunderground v.1.15,2013-01-12 17:40:00,
2013-01-12 10:50:00,26.1,10.4,30.73,NE,41,2.0,4.0,51,0.00,,,0.00,Wunderground v.1.15,2013-01-12 17:50:00,
2013-01-12 10:55:00,25.8,9.2,30.73,ENE,66,2.0,8.0,49,0.00,,,0.00,Wunderground v.1.15,2013-01-12 17:55:00,
2013-01-12 11:05:00,24.9,7.5,30.72,NE,51,2.0,4.0,47,0.00,,,0.00,Wunderground v.1.15,2013-01-12 18:05:00,
2013-01-12 11:10:00,25.0,7.6,30.72,SSE,156,1.0,1.0,47,0.00,,,0.00,Wunderground v.1.15,2013-01-12 18:10:00,
2013-01-12 11:20:00,26.7,6.6,30.72,NNW,345,2.0,8.0,42,0.00,,,0.00,Wunderground v.1.15,2013-01-12 18:20:00,
2013-01-12 11:25:00,26.8,6.7,30.72,NE,49,3.0,8.0,42,0.00,,,0.00,Wunderground v.1.15,2013-01-12 18:25:00,
2013-01-12 11:45:00,-999.9,-99.9,-32.77,North,32767,-999.0,7.0,255,-99.99,,,0.00,Wunderground v.1.15,2013-01-12 18:45:00,
2013-01-12 11:50:00,-999.9,-99.9,-32.77,North,32767,-999.0,7.0,255,-99.99,,,0.00,Wunderground v.1.15,2013-01-12 18:50:00,
2013-01-12 11:55:00,26.7,4.5,30.67,NW,318,2.0,7.0,38,0.00,,,0.00,Wunderground v.1.15,2013-01-12 18:55:00,
2013-01-12 12:05:00,26.5,4.8,30.67,NW,322,2.0,7.0,39,0.00,,,0.00,Wunderground v.1.15,2013-01-12 19:05:00,
2013-01-12 12:10:00,26.6,4.4,30.67,WNW,293,2.0,2.0,38,0.00,,,0.00,Wunderground v.1.15,2013-01-12 19:10:00,
2013-01-12 12:20:00,26.8,4.5,30.67,NE,49,1.0,7.0,38,0.00,,,0.00,Wunderground v.1.15,2013-01-12 19:20:00,
2013-01-12 12:25:00,26.9,5.2,30.67,NW,323,1.0,7.0,39,0.00,,,0.00,Wunderground v.1.15,2013-01-12 19:25:00,
2013-01-12 12:35:00,26.6,5.5,30.67,West,270,3.0,7.0,40,0.00,,,0.00,Wunderground v.1.15,2013-01-12 19:35:00,
2013-01-12 12:40:00,26.3,5.8,30.67,WNW,294,3.0,3.0,41,0.00,,,0.00,Wunderground v.1.15,2013-01-12 19:40:00,
2013-01-12 12:50:00,26.3,5.2,30.67,NW,316,2.0,6.0,40,0.00,,,0.00,Wunderground v.1.15,2013-01-12 19:50:00,
2013-01-12 12:55:00,26.6,7.6,30.67,WNW,293,1.0,6.0,44,0.00,,,0.00,Wunderground v.1.15,2013-01-12 19:55:00,
2013-01-12 13:05:00,28.0,5.6,30.67,NW,308,1.0,6.0,38,0.00,,,0.00,Wunderground v.1.15,2013-01-12 20:05:00,
2013-01-12 13:10:00,28.9,4.6,30.67,WSW,238,2.0,2.0,35,0.00,,,0.00,Wunderground v.1.15,2013-01-12 20:10:00,
2013-01-12 13:20:00,28.9,4.0,30.67,WNW,287,2.0,2.0,34,0.00,,,0.00,Wunderground v.1.15,2013-01-12 20:20:00,
2013-01-12 13:25:00,28.8,4.5,30.67,WNW,297,2.0,6.0,35,0.00,,,0.00,Wunderground v.1.15,2013-01-12 20:25:00,
2013-01-12 13:50:00,29.4,4.4,30.63,WSW,246,1.0,6.0,34,0.00,,,0.00,Wunderground v.1.15,2013-01-12 20:50:00,
2013-01-12 13:55:00,29.4,4.4,30.63,WNW,283,2.0,6.0,34,0.00,,,0.00,Wunderground v.1.15,2013-01-12 20:55:00,
2013-01-12 14:05:00,28.6,4.4,30.64,SSW,201,1.0,6.0,35,0.00,,,0.00,Wunderground v.1.15,2013-01-12 21:05:00,
2013-01-12 14:10:00,29.0,4.7,30.64,SE,132,0.0,0.0,35,0.00,,,0.00,Wunderground v.1.15,2013-01-12 21:10:00,
2013-01-12 14:20:00,29.2,4.3,30.65,NE,51,0.0,1.0,34,0.00,,,0.00,Wunderground v.1.15,2013-01-12 21:20:00,
2013-01-12 14:25:00,29.4,4.4,30.65,SE,125,0.0,1.0,34,0.00,,,0.00,Wunderground v.1.15,2013-01-12 21:25:00,
2013-01-12 14:35:00,29.8,4.1,30.65,WNW,297,1.0,2.0,33,0.00,,,0.00,Wunderground v.1.15,2013-01-12 21:35:00,
2013-01-12 14:40:00,29.3,3.0,30.66,WNW,293,2.0,2.0,32,0.00,,,0.00,Wunderground v.1.15,2013-01-12 21:40:00,
2013-01-12 14:50:00,29.0,3.4,30.66,NW,318,1.0,5.0,33,0.00,,,0.00,Wunderground v.1.15,2013-01-12 21:50:00,
2013-01-12 14:55:00,29.1,3.5,30.66,NW,321,3.0,5.0,33,0.00,,,0.00,Wunderground v.1.15,2013-01-12 21:55:00,
2013-01-12 15:05:00,29.8,3.5,30.66,WSW,249,1.0,3.0,32,0.00,,,0.00,Wunderground v.1.15,2013-01-12 22:05:00,
2013-01-12 15:10:00,30.0,2.3,30.66,SW,214,3.0,3.0,30,0.00,,,0.00,Wunderground v.1.15,2013-01-12 22:10:00,
2013-01-12 15:20:00,31.4,0.4,30.66,WNW,295,3.0,7.0,26,0.00,,,0.00,Wunderground v.1.15,2013-01-12 22:20:00,
2013-01-12 15:25:00,31.9,0.8,30.67,NW,307,3.0,7.0,26,0.00,,,0.00,Wunderground v.1.15,2013-01-12 22:25:00,
2013-01-12 15:35:00,32.2,-3.4,30.67,West,266,4.0,5.0,21,0.00,,,0.00,Wunderground v.1.15,2013-01-12 22:35:00,
2013-01-12 15:40:00,32.1,-3.5,30.67,WNW,285,3.0,3.0,21,0.00,,,0.00,Wunderground v.1.15,2013-01-12 22:40:00,
2013-01-12 15:50:00,31.7,-2.9,30.67,WNW,301,4.0,8.0,22,0.00,,,0.00,Wunderground v.1.15,2013-01-12 22:50:00,
2013-01-12 15:55:00,31.5,-0.3,30.67,North,11,5.0,8.0,25,0.00,,,0.00,Wunderground v.1.15,2013-01-12 22:55:00,
2013-01-12 16:05:00,31.9,0.0,30.67,West,280,3.0,4.0,25,0.00,,,0.00,Wunderground v.1.15,2013-01-12 23:05:00,
2013-01-12 16:10:00,32.0,0.9,30.67,NW,316,2.0,3.0,26,0.00,,,0.00,Wunderground v.1.15,2013-01-12 23:10:00,
2013-01-12 16:20:00,31.6,0.6,30.67,NNW,329,3.0,5.0,26,0.00,,,0.00,Wunderground v.1.15,2013-01-12 23:20:00,
2013-01-12 16:25:00,31.2,1.0,30.67,WNW,297,4.0,5.0,27,0.00,,,0.00,Wunderground v.1.15,2013-01-12 23:25:00,
2013-01-12 16:35:00,29.8,1.4,30.67,WSW,239,3.0,4.0,29,0.00,,,0.00,Wunderground v.1.15,2013-01-12 23:35:00,
2013-01-12 16:40:00,28.9,2.0,30.68,WNW,285,3.0,3.0,31,0.00,,,0.00,Wunderground v.1.15,2013-01-12 23:40:00,
2013-01-12 16:50:00,27.8,2.4,30.68,NW,318,2.0,2.0,33,0.00,,,0.00,Wunderground v.1.15,2013-01-12 23:50:00,
2013-01-12 16:55:00,27.7,2.9,30.68,NW,305,1.0,2.0,34,0.00,,,0.00,Wunderground v.1.15,2013-01-12 23:55:00,
2013-01-12 17:05:00,27.5,2.8,30.67,NW,316,1.0,1.0,34,0.00,,,0.00,Wunderground v.1.15,2013-01-13 00:05:00,
2013-01-12 17:10:00,28.0,3.2,30.67,NNW,329,0.0,0.0,34,0.00,,,0.00,Wunderground v.1.15,2013-01-13 00:10:00,
2013-01-12 17:20:00,28.8,3.3,30.68,NW,305,0.0,2.0,33,0.00,,,0.00,Wunderground v.1.15,2013-01-13 00:20:00,
2013-01-12 17:25:00,28.8,3.3,30.68,WNW,298,1.0,2.0,33,0.00,,,0.00,Wunderground v.1.15,2013-01-13 00:25:00,
2013-01-12 17:35:00,28.1,2.0,30.68,NW,314,1.0,1.0,32,0.00,,,0.00,Wunderground v.1.15,2013-01-13 00:35:00,
2013-01-12 17:40:00,27.1,2.4,30.68,North,351,2.0,5.0,34,0.00,,,0.00,Wunderground v.1.15,2013-01-13 00:40:00,
2013-01-12 17:50:00,25.9,1.3,30.68,NW,318,4.0,4.0,34,0.00,,,0.00,Wunderground v.1.15,2013-01-13 00:50:00,
2013-01-12 17:55:00,25.5,1.0,30.68,NW,322,4.0,4.0,34,0.00,,,0.00,Wunderground v.1.15,2013-01-13 00:55:00,
2013-01-12 18:05:00,25.0,-0.1,30.69,WNW,295,3.0,4.0,33,0.00,,,0.00,Wunderground v.1.15,2013-01-13 01:05:00,
2013-01-12 18:10:00,24.7,-0.4,30.69,NW,321,3.0,3.0,33,0.00,,,0.00,Wunderground v.1.15,2013-01-13 01:10:00,
2013-01-12 18:20:00,24.0,-1.0,30.69,WNW,295,2.0,2.0,33,0.00,,,0.00,Wunderground v.1.15,2013-01-13 01:20:00,
2013-01-12 18:25:00,23.7,-1.3,30.70,NW,314,1.0,2.0,33,0.00,,,0.00,Wunderground v.1.15,2013-01-13 01:25:00,
2013-01-12 18:35:00,22.9,-1.3,30.70,West,278,1.0,1.0,34,0.00,,,0.00,Wunderground v.1.15,2013-01-13 01:35:00,
2013-01-12 18:40:00,22.4,-1.2,30.70,NW,314,0.0,1.0,35,0.00,,,0.00,Wunderground v.1.15,2013-01-13 01:40:00,
2013-01-12 18:50:00,22.0,-0.9,30.70,NW,310,0.0,0.0,36,0.00,,,0.00,Wunderground v.1.15,2013-01-13 01:50:00,
2013-01-12 18:55:00,21.7,-1.2,30.70,NNW,335,0.0,0.0,36,0.00,,,0.00,Wunderground v.1.15,2013-01-13 01:55:00,
2013-01-12 19:04:00,20.9,-1.3,30.71,NW,319,0.0,0.0,37,0.00,,,0.00,Wunderground v.1.15,2013-01-13 02:04:00,
2013-01-12 19:10:00,20.7,-1.5,30.71,NW,314,0.0,0.0,37,0.00,,,0.00,Wunderground v.1.15,2013-01-13 02:10:00,
2013-01-12 19:20:00,20.3,-1.3,30.71,NW,319,0.0,0.0,38,0.00,,,0.00,Wunderground v.1.15,2013-01-13 02:20:00,
2013-01-12 19:25:00,20.0,-1.6,30.72,NW,319,0.0,0.0,38,0.00,,,0.00,Wunderground v.1.15,2013-01-13 02:25:00,
2013-01-12 19:35:00,19.7,-1.8,30.72,NW,321,0.0,0.0,38,0.00,,,0.00,Wunderground v.1.15,2013-01-13 02:35:00,
2013-01-12 19:45:00,19.1,-2.4,30.72,NW,325,0.0,0.0,38,0.00,,,0.00,Wunderground v.1.15,2013-01-13 02:45:00,
2013-01-12 19:50:00,18.7,-2.2,30.72,NW,325,0.0,0.0,39,0.00,,,0.00,Wunderground v.1.15,2013-01-13 02:50:00,
2013-01-12 19:55:00,18.6,-2.3,30.72,NNW,347,0.0,0.0,39,0.00,,,0.00,Wunderground v.1.15,2013-01-13 02:55:00,
2013-01-12 20:05:00,18.2,-2.1,30.73,NW,322,0.0,0.0,40,0.00,,,0.00,Wunderground v.1.15,2013-01-13 03:05:00,
2013-01-12 20:10:00,18.1,-2.2,30.73,North,11,0.0,0.0,40,0.00,,,0.00,Wunderground v.1.15,2013-01-13 03:10:00,
2013-01-12 20:20:00,17.9,-1.9,30.73,NW,326,0.0,0.0,41,0.00,,,0.00,Wunderground v.1.15,2013-01-13 03:20:00,
2013-01-12 20:25:00,17.7,-2.1,30.73,NW,326,0.0,0.0,41,0.00,,,0.00,Wunderground v.1.15,2013-01-13 03:25:00,
2013-01-12 20:35:00,17.2,-2.0,30.74,NW,326,0.0,0.0,42,0.00,,,0.00,Wunderground v.1.15,2013-01-13 03:35:00,
2013-01-12 20:40:00,17.2,-2.0,30.74,NNW,332,0.0,0.0,42,0.00,,,0.00,Wunderground v.1.15,2013-01-13 03:40:00,
2013-01-12 20:49:00,17.4,-1.8,30.74,NNW,332,0.0,0.0,42,0.00,,,0.00,Wunderground v.1.15,2013-01-13 03:49:00,
2013-01-12 20:55:00,17.3,-1.9,30.74,NNW,331,0.0,0.0,42,0.00,,,0.00,Wunderground v.1.15,2013-01-13 03:55:00,
2013-01-12 21:05:00,17.3,-1.9,30.74,NNW,331,0.0,0.0,42,0.00,,,0.00,Wunderground v.1.15,2013-01-13 04:05:00,
2013-01-12 21:10:00,17.5,-1.7,30.74,NNW,331,0.0,0.0,42,0.00,,,0.00,Wunderground v.1.15,2013-01-13 04:10:00,
2013-01-12 21:20:00,16.9,-2.3,30.75,NNW,331,0.0,0.0,42,0.00,,,0.00,Wunderground v.1.15,2013-01-13 04:20:00,
2013-01-12 21:25:00,16.5,-2.1,30.75,NNW,330,0.0,0.0,43,0.00,,,0.00,Wunderground v.1.15,2013-01-13 04:25:00,
2013-01-12 21:35:00,15.4,-2.2,30.75,ESE,114,0.0,0.0,45,0.00,,,0.00,Wunderground v.1.15,2013-01-13 04:35:00,
2013-01-12 21:40:00,15.4,-2.2,30.75,ESE,114,0.0,0.0,45,0.00,,,0.00,Wunderground v.1.15,2013-01-13 04:40:00,
2013-01-12 21:50:00,14.7,-2.4,30.75,SE,128,0.0,0.0,46,0.00,,,0.00,Wunderground v.1.15,2013-01-13 04:50:00,
2013-01-12 21:55:00,14.3,-2.3,30.75,SE,125,0.0,0.0,47,0.00,,,0.00,Wunderground v.1.15,2013-01-13 04:55:00,
2013-01-12 22:05:00,15.4,-1.3,30.76,ESE,115,0.0,0.0,47,0.00,,,0.00,Wunderground v.1.15,2013-01-13 05:05:00,
2013-01-12 22:10:00,15.5,-1.6,30.76,ESE,118,0.0,0.0,46,0.00,,,0.00,Wunderground v.1.15,2013-01-13 05:10:00,
2013-01-12 22:15:00,15.4,-1.7,30.76,ESE,119,0.0,0.0,46,0.00,,,0.00,Wunderground v.1.15,2013-01-13 05:15:00,
2013-01-12 22:20:00,14.9,-1.7,30.76,ESE,118,0.0,0.0,47,0.00,,,0.00,Wunderground v.1.15,2013-01-13 05:20:00,
2013-01-12 22:25:00,14.9,-1.3,30.76,ESE,119,0.0,0.0,48,0.00,,,0.00,Wunderground v.1.15,2013-01-13 05:25:00,
2013-01-12 22:30:00,14.7,-1.5,30.76,ESE,113,0.0,0.0,48,0.00,,,0.00,Wunderground v.1.15,2013-01-13 05:30:00,
2013-01-12 22:35:00,14.7,-1.0,30.76,ESE,103,0.0,0.0,49,0.00,,,0.00,Wunderground v.1.15,2013-01-13 05:35:00,
2013-01-12 22:40:00,14.3,-1.4,30.76,ESE,120,0.0,0.0,49,0.00,,,0.00,Wunderground v.1.15,2013-01-13 05:40:00,
2013-01-12 22:50:00,14.4,-0.5,30.76,ESE,111,0.0,0.0,51,0.00,,,0.00,Wunderground v.1.15,2013-01-13 05:50:00,
2013-01-12 22:55:00,14.5,-0.8,30.76,SE,124,0.0,0.0,50,0.00,,,0.00,Wunderground v.1.15,2013-01-13 05:55:00,
2013-01-12 23:05:00,14.3,-0.6,30.76,ESE,111,0.0,0.0,51,0.00,,,0.00,Wunderground v.1.15,2013-01-13 06:05:00,
2013-01-12 23:10:00,14.3,-0.6,30.77,ESE,113,0.0,0.0,51,0.00,,,0.00,Wunderground v.1.15,2013-01-13 06:10:00,
2013-01-12 23:20:00,14.0,-0.8,30.77,ESE,116,1.0,1.0,51,0.00,,,0.00,Wunderground v.1.15,2013-01-13 06:20:00,
2013-01-12 23:25:00,13.7,-0.3,30.77,ESE,105,1.0,1.0,53,0.00,,,0.00,Wunderground v.1.15,2013-01-13 06:25:00,
2013-01-12 23:35:00,13.8,-0.2,30.77,ESE,102,1.0,1.0,53,0.00,,,0.00,Wunderground v.1.15,2013-01-13 06:35:00,
2013-01-12 23:40:00,13.7,-0.3,30.77,ESE,102,0.0,0.0,53,0.00,,,0.00,Wunderground v.1.15,2013-01-13 06:40:00,
2013-01-12 23:50:00,14.0,0.0,30.77,East,88,1.0,1.0,53,0.00,,,0.00,Wunderground v.1.15,2013-01-13 06:50:00,
2013-01-12 23:55:00,14.4,0.0,30.77,East,83,1.0,1.0,52,0.00,,,0.00,Wunderground v.1.15,2013-01-13 06:55:00,